Regional Weather Roundup
Issued by NWS Cleveland, OH

Home | Current Version | Previous Version | Graphics & Text | Print | Product List | Glossary On
Versions: 1 2 3 4 5 6 7 8 9 10 11 12 13 14 15 16 17 18 19 20 21 22 23 24 25 26 27 28 29 30 31 32 33 34 35 36 37 38 39 40 41 42 43 44 45 46 47 48 49 50
000
ASUS41 KCLE 301300
RWRCLE
OHIO REGIONAL WEATHER ROUNDUP
NATIONAL WEATHER SERVICE WILMINGTON, OH
900 AM EDT SAT APR 30 2016

NOTE: "FAIR" INDICATES FEW OR NO CLOUDS BELOW 12,000 FEET WITH NO
SIGNIFICANT WEATHER AND/OR OBSTRUCTIONS TO VISIBILITY.

OHZ001>008-015>018-024>027-034-035-043-044-301400-
   NORTHWEST OHIO

CITY           SKY/WX    TMP DP  RH WIND       PRES   REMARKS
DEFIANCE       FAIR      48  34  58 SE10      30.12S
FINDLAY        FAIR      46  35  65 E12G21    30.11S
TOLEDO EXPRESS FAIR      47  39  74 E10       30.12F
TOLEDO EXEC    FAIR      47  38  71 E9        30.13F
LIMA           FAIR      44  40  85 E15       30.08F
$$

OHZ009>014-019>023-028>033-038-089-301400-
   NORTHEAST OHIO

CITY           SKY/WX    TMP DP  RH WIND       PRES   REMARKS
CLE-HOPKINS    FAIR      45  38  76 SE10      30.16S
CLE-LAKEFRONT  FAIR      45  38  76 SE9       30.14S
CUY CO. ARPT   CLOUDY    41  39  93 SE12      30.15F
LORAIN-ELYRIA  FAIR      44  36  73 SE9       30.13F
ASHTABULA      CLOUDY    45  42  89 S7        30.16F
AKRON-CANTON   CLOUDY    42  40  92 SE7       30.13S FOG
WOOSTER        NOT AVBL
MANSFIELD      PTSUNNY   41  39  93 E9        30.11S
YOUNGSTOWN     CLOUDY    46  42  86 E8        30.14S
$$

OHZ042-051>053-060>062-070>072-077>081-301400-
  SOUTHWEST OHIO

CITY           SKY/WX    TMP DP  RH WIND       PRES   REMARKS
CINC-COVINGTON CLOUDY    53  49  86 NE12      30.00F
CINC-LUNKEN    CLOUDY    54  50  86 NE5       30.03F
HAMILTON       CLOUDY    53  46  77 E8        30.04F
DAYTON         NOT AVBL
WRIGHT-PAT AFB NOT AVBL
DAYTON GENERAL CLOUDY    50  43  77 E10       30.04S
WILMINGTON     CLOUDY    49  46  90 E10G16    30.04F
$$

OHZ036-037-039>041-045>050-054>059-063>069-073>076-082>088-301400-
  CENTRAL AND SOUTHEAST OHIO

CITY           SKY/WX    TMP DP  RH WIND       PRES   REMARKS
COLUMBUS       CLOUDY    47  43  86 E6        30.09F
OSU AIRPORT    CLOUDY    47  43  86 E8        30.09F
BOLTON FIELD   CLOUDY    46  45  93 E9        30.08F
RICKENBACK AFB NOT AVBL
NEWARK         CLOUDY    50  44  80 NE5       30.09F
MARION         CLOUDY    43  41  93 SE8       30.11F FOG
LANCASTER      PTSUNNY   50  45  83 E7        30.09F
ZANESVILLE     FAIR      52  44  74 E3        30.10F
NEW PHILLY     CLOUDY    44  41  89 E5        30.14S
$$



USA.gov is the U.S. government's official web portal to all federal, state and local government web resources and services.